THOR ABLESTAR DEB, 145

Orbit data source: Space-Track

THOR ABLESTAR DEB, 145 is space debris in LEO originally from a launch on Thu, 29 Jun 1961 UTC launched from the Air Force Eastern Test Range (AFETR). Debris objects in space refer to the collection of defunct objects orbiting the Earth. Examples of debris include non-operational satellites, rocket bodies, and fragments generated from explosions, collisions, or faulty payload assembly.

Loading next visibility...
Identifier
145, 1961-015AF
Orbit
LEO
Last TLE update
13 hours ago
Origin
Manufacturer
Unknown
Mission
Spacecraft
Bus & Motor
Unknown
Mass
Unknown
Launch date (UTC)
1961-06-29 (64 years ago)
Launch vehicle
Unknown
Launch site
Air Force Eastern Test Range (AFETR)
Object type
Payload
Rocket body
Debris
Shape & HBR
Unknown
Radar Cross Section
Medium (>0.1 m² and <1 m²)

Expand to show TLE details & history

TLE from 13 hours ago
0 THOR ABLESTAR DEB
1 00145U 61015AF  25128.68656968  .00000372  00000-0  28446-3 0  9994
2 00145  66.9263 305.7484 0068010 238.5308 120.9119 14.02952888259960
Epoch: 2025-05-08T16:28Z
Definitive object data (Epoch: 2025-05-08T16:28:39.62Z)
Latitude
-0.00007°
Longitude
-168.17021°
Altitude
911.305 km
Speed
7.384 km/s
True Right ascension
20h 22m 59s
True Declination
0° 00' 00"
Sunlit
Object was in daylight at TLE epoch
Visualization TLE readout
Latitude
19.76523°
Longitude
1.75644°
Altitude
876.087 km
Speed
7.421 km/s
Apparent Right ascension
05h 13m 01s
Apparent Declination
-11° 29' 14"
Sunlit
Object is in daylight
Visualization observer readout
Local Sidereal Time
13:21:26
Azimuth
282.33° WNW
Elevation
-31.82°
Doppler factor
1
Orbital elements
Apogee altitude
931.333 km
Perigee altitude
832.581 km
Semi-major axis
7,260.094 km
Eccentricity
0.006801
Inclination
66.9263°
RAAN
305.7484°
Arg. of periapsis
238.5308°
True anomaly
121.57762°
Mean anomaly
120.9119°
Eccentric anomaly
121.24505°
Mean motion
3.50857 °/min
BSTAR
0.00028446
Orbital period
102.61 mins
Loading maneuver chart data...
Loading SW <> Apogee altitude chart data...

THOR ABLESTAR DEB Visibility forecast

Observer location: undefined°, undefined°

Span
Click to sort rows by Start time (UTC) header in descending order
Start Az.
Max El. time (UTC)
Max El. Az.
Max El.
End time (UTC)
End Az.
11 mins2025-05-09 13:07:48.638Z196.674° SSW2025-05-09 13:12:48.638Z119.902° SE43.388°2025-05-09 13:18:48.638Z33.315° NE
7 mins2025-05-09 14:55:48.638Z276.411° WNW2025-05-09 14:58:48.638Z312.746° NW20.947°2025-05-09 15:02:48.638Z359.084° N
10 mins2025-05-09 22:07:48.638Z341.279° N2025-05-09 22:11:48.638Z36.585° NE40.672°2025-05-09 22:17:48.638Z137.882° SSE
6 mins2025-05-09 23:54:48.638Z284.876° WNW2025-05-09 23:56:48.638Z260.371° W18.92°2025-05-10 00:00:48.638Z213.78° SW
|